Weather History for Scilly, United Kingdom

Change the Weather History Date:

Wednesday, February 6, 2013

  Actual Average Record
Temperature  
Mean Temperature 45 °F -  
Max Temperature 46 °F 47 °F 51 °F (2014)
Min Temperature 44 °F 45 °F 42 °F (2014)
Degree Days  
Heating Degree Days 20    
Moisture  
Dew Point 34 °F    
Average Humidity 61    
Maximum Humidity 71    
Minimum Humidity 47    
Precipitation  
Precipitation 0.00 in - - ()
Sea Level Pressure  
Sea Level Pressure 30.10 in    
Wind  
Wind Speed 26 mph ()    
Max Wind Speed 34 mph    
Max Gust Speed 50 mph    
Visibility 7.7 miles    
Events      
Averages and records for this station are not official NWS values.
T = Trace of Precipitation, MM = Missing Value Source: Averaged Metar Reports

Daily Weather History Graph

Daily Weather History Graph

Search for Another Location

Airport:

Trip Planner

Search our weather history database for the weather conditions in past years. The results will help you decide how hot, cold, wet, or windy it might be!

Date:

Astronomy

Feb. 06, 2013 Rise Set
Actual Time 7:50 AM GMT 5:28 PM GMT
Civil Twilight 7:16 AM GMT 6:02 PM GMT
Nautical Twilight 6:38 AM GMT 6:41 PM GMT
Astronomical Twilight 6:00 AM GMT 7:18 PM GMT
Moon 4:32 AM GMT (2/6) 1:20 PM GMT (2/6)
Length of Visible Light 10h 46m
Length of Day
9h 37m
Waning Crescent, 19% of the Moon is Illuminated
Feb 6
Waning Crescent
Feb 10
New
Feb 17
First Quarter
Feb 25
Full
Mar 4
Last Quarter

Hourly Weather History & Observations

Time (GMT) Temp. Windchill Dew Point Humidity Pressure Visibility Wind Dir Wind Speed Gust Speed Precip Events Conditions
2:50 AM 46 °F - 37 °F 60% 29.87 in 9 mi NNW 32.2 mph - -   Partly Cloudy
5:50 AM 45 °F - 35 °F 57% 29.93 in 14 mi NNW 34.5 mph - -   Mostly Cloudy
8:20 AM 44.6 °F 34.1 °F 32.0 °F 61% 29.98 in 6.2 mi North 34.5 mph 49.5 mph N/A   Unknown
8:50 AM 44 °F - 33 °F 54% 30.02 in 16 mi North 31.1 mph - -   Scattered Clouds
8:50 AM 44.6 °F 34.6 °F 32.0 °F 61% 30.01 in 6.2 mi North 31.1 mph 42.6 mph N/A   Scattered Clouds
9:20 AM 44.6 °F 34.7 °F 33.8 °F 66% 30.01 in 6.2 mi North 29.9 mph 41.4 mph N/A   Scattered Clouds
9:50 AM 44.6 °F 34.4 °F 33.8 °F 66% 30.04 in 6.2 mi North 32.2 mph 44.9 mph N/A   Scattered Clouds
10:20 AM 44.6 °F 34.4 °F 35.6 °F 71% 30.06 in 6.2 mi North 32.2 mph 46.0 mph N/A   Partly Cloudy
10:50 AM 44.6 °F 34.9 °F 33.8 °F 66% 30.06 in 6.2 mi North 28.8 mph 46.0 mph N/A   Scattered Clouds
11:20 AM 44.6 °F 34.9 °F 33.8 °F 66% 30.09 in 6.2 mi North 28.8 mph 42.6 mph N/A   Scattered Clouds
11:50 AM 45 °F - 34 °F 54% 30.12 in 14 mi North 27.6 mph - -   Partly Cloudy
11:50 AM 44.6 °F 35.1 °F 33.8 °F 66% 30.12 in 6.2 mi North 27.6 mph 41.4 mph N/A   Scattered Clouds
12:20 PM 44.6 °F 34.9 °F 33.8 °F 66% 30.12 in 6.2 mi North 28.8 mph 42.6 mph N/A   Partly Cloudy
1:50 PM 46.4 °F 37.2 °F 33.8 °F 62% 30.12 in 6.2 mi North 29.9 mph 43.7 mph N/A   Partly Cloudy
2:20 PM 46.4 °F 37.5 °F 33.8 °F 62% 30.15 in 6.2 mi North 27.6 mph 39.1 mph N/A   Partly Cloudy
2:50 PM 46.4 °F 37.5 °F 33.8 °F 62% 30.15 in 6.2 mi North 27.6 mph 44.9 mph N/A   Partly Cloudy
3:20 PM 44.6 °F 34.9 °F 33.8 °F 66% 30.15 in 6.2 mi North 28.8 mph 40.3 mph N/A   Partly Cloudy
3:50 PM 46.4 °F 38.1 °F 33.8 °F 62% 30.15 in 6.2 mi North 24.2 mph 35.7 mph N/A   Partly Cloudy
4:20 PM 44.6 °F 35.9 °F 33.8 °F 66% 30.18 in 6.2 mi North 23.0 mph 35.7 mph N/A   Partly Cloudy
5:50 PM 45 °F - 33 °F 51% 30.23 in 28 mi North 25.3 mph - -   Scattered Clouds
8:50 PM 45 °F - 31 °F 47% 30.28 in 31 mi North 23.0 mph - -   Scattered Clouds
11:50 PM 44 °F - 32 °F 52% 30.32 in 28 mi North 17.3 mph - -   Scattered Clouds